STSAT-3 (39422 NORAD) Tracking and Keplerian Element Data

This shows tracking and keplerian element data for the satellite.

Feedback or suggestion? Click here.




ElementValue
Catalog39422
NameSTSAT-3
Epoch Orbit25282
Epoch Day198.81712993
Epoch Year2018
RAAN252.4677
Inclination97.6054
Eccentricity0.00233
Argument of Perigee6.2375
Mean Anonmoly353.9098
Mean Motion14.89627728
Decay Rate3.3E-07
L11 39422U 13066G 18198.81712993 .00000033 00000-0 90471-5 0 9995
L22 39422 97.6054 252.4677 0023300 6.2375 353.9098 14.89627728252827

Live tracking and technical data element details for STSAT-3 (NORAD 39422). STSAT-3 can be tracked NOW for your location showing map with azimuth and elevation plus other details from your city location.

Track the satellite on the map from your city or location and see movement details for azimuth, elevation, latitude, longitude, range, height, and movement on the map or in text.







IsCatalogInMostPopularTable: catalog: 39422, numindb: 49
Update: records affected: 1



GetName: 39422 STSAT-3

Hit Count: updated at: Thu, 19 Jul 2018 21:25:12 GMT